Weather History for Florence, SC

Change the Weather History Date:

Friday, April 12, 2013

  Actual Average Record
Temperature  
Mean Temperature 75 °F 62 °F  
Max Temperature 84 °F 75 °F 90 °F (1981)
Min Temperature 65 °F 50 °F 32 °F (1989)
Degree Days  
Heating Degree Days 0 5  
Month to date heating degree days 61 67  
Since 1 July heating degree days 2272 2443  
Cooling Degree Days 10 2  
Month to date cooling degree days 31 21  
Year to date cooling degree days 60 45  
Growing Degree Days 25 (Base 50)    
Moisture  
Dew Point 65 °F    
Average Humidity 72    
Maximum Humidity 97    
Minimum Humidity 47    
Precipitation  
Precipitation 0.36 in 0.09 in 1.66 in (1988)
Month to date precipitation 1.44 1.06  
Year to date precipitation 10.45 10.54  
Sea Level Pressure  
Sea Level Pressure 29.75 in    
Wind  
Wind Speed 11 mph (SW)    
Max Wind Speed 26 mph    
Max Gust Speed 37 mph    
Visibility 10 miles    
Events Rain , Thunderstorm    
T = Trace of Precipitation, MM = Missing Value Source: NWS Daily Summary

Daily Weather History Graph

Daily Weather History Graph

Search for Another Location

Airport:

Trip Planner

Search our weather history database for the weather conditions in past years. The results will help you decide how hot, cold, wet, or windy it might be!

Date:

Astronomy

Apr. 12, 2013 Rise Set
Actual Time 6:51 AM EDT 7:48 PM EDT
Civil Twilight 6:25 AM EDT 8:14 PM EDT
Nautical Twilight 5:55 AM EDT 8:44 PM EDT
Astronomical Twilight 5:24 AM EDT 9:15 PM EDT
Moon 8:05 AM EDT (4/12) 10:10 PM EDT (4/12)
Length of Visible Light 13h 48m
Length of Day
12h 57m
Waxing Crescent, 5% of the Moon is Illuminated
Apr 12
Waxing Crescent
Apr 18
First Quarter
Apr 25
Full
May 2
Last Quarter
May 9
New

Hourly Weather History & Observations

Time (EDT) Temp. Heat Index Dew Point Humidity Pressure Visibility Wind Dir Wind Speed Gust Speed Precip Events Conditions
12:53 AM 73.0 °F - 66.0 °F 79% 29.82 in 10.0 mi South 13.8 mph 20.7 mph N/A   Overcast
1:53 AM 73.0 °F - 66.0 °F 79% 29.81 in 10.0 mi South 12.7 mph 20.7 mph N/A   Overcast
2:12 AM 73.4 °F - 66.2 °F 78% 29.81 in 10.0 mi South 13.8 mph 21.9 mph N/A   Overcast
2:53 AM 73.0 °F - 66.0 °F 79% 29.78 in 10.0 mi South 16.1 mph - N/A   Overcast
3:53 AM 72.0 °F - 66.0 °F 81% 29.77 in 9.0 mi North - - 0.01 in Rain , Thunderstorm Light Rain
4:20 AM 69.8 °F - 66.2 °F 88% 29.76 in 3.0 mi North - - 0.29 in Rain , Thunderstorm Light Thunderstorms and Rain
4:33 AM 69.8 °F - 66.2 °F 88% 29.76 in 10.0 mi North - - 0.30 in Rain Light Rain
4:53 AM 70.0 °F - 66.9 °F 90% 29.75 in 10.0 mi North - - 0.30 in   Mostly Cloudy
5:53 AM 68.0 °F - 66.0 °F 93% 29.74 in 10.0 mi North - - N/A   Mostly Cloudy
5:58 AM 68.0 °F - 66.2 °F 94% 29.75 in 10.0 mi North - - N/A   Mostly Cloudy
6:08 AM 69.8 °F - 66.2 °F 88% 29.75 in 10.0 mi North - - N/A   Overcast
6:37 AM 69.8 °F - 66.2 °F 88% 29.76 in 10.0 mi North - - N/A   Overcast
6:53 AM 70.0 °F - 66.9 °F 90% 29.76 in 10.0 mi North - - 0.00 in   Overcast
7:34 AM 69.8 °F - 66.2 °F 88% 29.77 in 10.0 mi South 10.4 mph - N/A   Overcast
7:53 AM 70.0 °F - 68.0 °F 93% 29.77 in 10.0 mi South 9.2 mph - N/A   Overcast
8:34 AM 71.6 °F - 68.0 °F 88% 29.78 in 10.0 mi SSW 9.2 mph - N/A   Overcast
8:53 AM 72.0 °F - 68.0 °F 87% 29.76 in 10.0 mi SSW 10.4 mph - N/A   Overcast
9:44 AM 73.4 °F - 69.8 °F 88% 29.77 in 10.0 mi SSW 11.5 mph - N/A   Overcast
9:53 AM 73.9 °F - 69.1 °F 85% 29.75 in 10.0 mi SSW 12.7 mph 18.4 mph N/A   Overcast
10:00 AM 73.4 °F - 69.8 °F 88% 29.76 in 10.0 mi SSW 8.1 mph 18.4 mph N/A   Mostly Cloudy
10:40 AM 75.2 °F - 68.0 °F 78% 29.77 in 10.0 mi SW 16.1 mph 24.2 mph N/A   Overcast
10:53 AM 77.0 °F - 69.1 °F 76% 29.76 in 10.0 mi SSW 12.7 mph - N/A   Overcast
11:53 AM 80.1 °F 82.7 °F 68.0 °F 67% 29.75 in 10.0 mi SSW 15.0 mph 25.3 mph N/A   Overcast
12:53 PM 80.1 °F 82.7 °F 68.0 °F 67% 29.73 in 10.0 mi WSW 15.0 mph 24.2 mph 0.00 in   Mostly Cloudy
1:53 PM 82.0 °F 84.5 °F 66.9 °F 60% 29.70 in 10.0 mi SW 16.1 mph 25.3 mph N/A   Mostly Cloudy
2:40 PM 71.6 °F - 64.4 °F 78% 29.72 in 3.0 mi West 15.0 mph 29.9 mph 0.04 in Rain Heavy Rain
2:53 PM 72.0 °F - 66.0 °F 81% 29.72 in 10.0 mi WSW 10.4 mph - 0.05 in Rain Light Rain
3:53 PM 77.0 °F - 68.0 °F 74% 29.69 in 10.0 mi West 6.9 mph - 0.00 in   Mostly Cloudy
4:53 PM 80.1 °F 82.1 °F 66.0 °F 62% 29.68 in 10.0 mi West 15.0 mph 20.7 mph N/A   Mostly Cloudy
5:53 PM 82.0 °F 82.7 °F 61.0 °F 49% 29.69 in 10.0 mi WSW 15.0 mph 23.0 mph N/A   Partly Cloudy
6:53 PM 80.1 °F 81.1 °F 61.0 °F 52% 29.69 in 10.0 mi SW 11.5 mph 17.3 mph N/A   Scattered Clouds
7:53 PM 77.0 °F - 61.0 °F 58% 29.71 in 10.0 mi SW 10.4 mph - N/A   Partly Cloudy
8:53 PM 73.0 °F - 61.0 °F 66% 29.73 in 10.0 mi SW 5.8 mph - N/A   Clear
9:53 PM 71.1 °F - 63.0 °F 75% 29.75 in 10.0 mi SSW 8.1 mph - N/A   Clear
10:53 PM 68.0 °F - 57.0 °F 68% 29.78 in 10.0 mi West 5.8 mph - N/A   Clear
11:53 PM 66.9 °F - 46.0 °F 47% 29.80 in 10.0 mi West 9.2 mph - N/A   Clear